Weather in Salzwedel

Germany     52°50′31″N   11°10′16″E
temp.,
°C
wind,
m/s
gust,
m/s
humid.,
%
clouds,
%
prec.,
mm/h
press.,
hPa
HPBL,
m
13 june, sun
sun1323:00+13nw611785 0.0 1020747
02:00+10wnw5117955 0.0 1022430
05:00+9w4108747 0.0 1023287
08:00+13wnw5964100 0.0 10241292
11:00+15nw71062100 0.0 10251617
14:00+18nw695228 0.1 10251810
17:00+20nw67492 0.0 10251706
20:00+17nnw47650 0.0 1025280
14 june, mon
mon1423:00+12nw33810 0.0 102635
02:00+10wnw22890 0.0 102512
05:00+9sw22890 0.0 102410
08:00+14sw23700 0.0 1024245
11:00+20ssw34570 0.0 1023815
14:00+23sw44510 0.0 10211224
17:00+24sw455084 0.0 10191449
20:00+21sw3672100 0.0 1018129
15 june, tue
tue1523:00+17wnw2282100 0.0 101912
02:00+15wnw2287100 0.0 101817
05:00+14nnw3697100 0.0 1019140
08:00+16nnw4585100 0.0 1020443
11:00+16nw3472100 0.0 1021525
14:00+20nw2455100 0.0 10201178
17:00+22nnw34445 0.0 10201688
20:00+19ne3464100 0.0 101981
16 june, wed
wed1623:00+13e3578100 0.0 102088
02:00+12e357698 0.0 102189
05:00+11ese368789 0.0 1020102
08:00+15ese477258 0.0 1020314
11:00+21ese5658100 0.0 1019820
14:00+24se455131 0.0 10181289
17:00+26se445153 0.0 10161599
20:00+24sse22705 0.1 101625
17 june, thu
thu1723:00+19ese35815 0.0 101665
02:00+17ese48825 0.0 1016147
05:00+16ese49925 0.0 1015152
08:00+21se58780 0.0 1015307
11:00+26se67590 0.0 1015957
14:00+29se57475 0.0 10141782
17:00+29se56480 0.0 10131913
20:00+26sse35660 0.0 1013115